| time (UTC) | temp F | wind direction | speed MPH | gust MPH | rain 1hr in | rain 24hr in | rain mn in | humidity % | barometer mb |
| 20260502163029 | 72 | 11 | 0.0 | 0.0 | 0.00 | 1.74 | 0.00 | 56 | 1018.7 |
| 20260502161526 | 71 | 34 | 0.0 | 0.0 | 0.00 | 1.74 | 0.00 | 60 | 1018.6 |
| 20260502151514 | 67 | 18 | 0.0 | 0.0 | 0.00 | 1.79 | 0.00 | 69 | 1018.3 |
| 20260502123039 | 54 | 346 | 0.0 | 0.0 | 0.00 | 2.04 | 0.00 | 94 | 1016.8 |
| 20260502121538 | 53 | 333 | 0.0 | 0.0 | 0.00 | 2.04 | 0.00 | 94 | 1016.6 |
| 20260502114538 | 53 | 333 | 0.0 | 0.0 | 0.00 | 2.06 | 0.00 | 93 | 1016.2 |
| 20260502113033 | 53 | 360 | 0.0 | 0.0 | 0.00 | 2.06 | 0.00 | 93 | 1016.1 |
| 20260502111532 | 53 | 360 | 0.0 | 0.0 | 0.00 | 2.06 | 0.00 | 93 | 1016.0 |
| 20260502110030 | 53 | 360 | 0.0 | 0.0 | 0.00 | 2.11 | 0.00 | 92 | 1015.8 |
| 20260502104539 | 54 | 360 | 0.0 | 0.0 | 0.00 | 2.11 | 0.00 | 92 | 1015.6 |
| 20260502103127 | 54 | 360 | 0.0 | 0.0 | 0.00 | 2.11 | 0.00 | 92 | 1015.5 |
| 20260502101523 | 54 | 360 | 0.0 | 0.0 | 0.00 | 2.11 | 0.00 | 91 | 1015.3 |
| 20260502091514 | 55 | 59 | 0.0 | 0.0 | 0.00 | 2.76 | 0.00 | 89 | 1014.3 |
| 20260502071507 | 56 | 14 | 0.0 | 0.0 | 0.00 | 2.99 | 0.00 | 92 | 1013.9 |
| 20260502070013 | 56 | 14 | 0.0 | 0.0 | 0.00 | 2.99 | 0.00 | 92 | 1014.0 |
| 20260502064515 | 56 | 14 | 0.0 | 0.0 | 0.00 | 2.99 | 0.00 | 92 | 1014.0 |
| 20260502063002 | 56 | 14 | 0.0 | 0.0 | 0.00 | 2.99 | 0.00 | 93 | 1013.7 |
| 20260502061601 | 56 | 5 | 0.0 | 0.0 | 0.00 | 2.99 | 0.00 | 93 | 1013.7 |
| 20260502060112 | 56 | 307 | 0.0 | 0.0 | 0.00 | 3.06 | 0.00 | 93 | 1013.7 |
| 20260502054602 | 56 | 24 | 0.0 | 0.0 | 0.00 | 3.06 | 0.00 | 94 | 1013.7 |
| 20260502053106 | 56 | 26 | 0.0 | 0.0 | 0.00 | 3.06 | 0.00 | 94 | 1013.6 |
| 20260502051601 | 57 | 5 | 0.0 | 0.0 | 0.00 | 3.06 | 0.00 | 95 | 1013.5 |
| 20260502050058 | 56 | 25 | 0.0 | 0.0 | 0.00 | 3.34 | 3.06 | 95 | 1013.4 |
| 20260502044556 | 56 | 24 | 0.0 | 0.0 | 0.00 | 3.34 | 3.06 | 95 | 1013.2 |
| 20260502043054 | 56 | 27 | 0.0 | 0.0 | 0.00 | 3.34 | 3.06 | 95 | 1013.4 |
| 20260502041552 | 56 | 56 | 0.0 | 0.0 | 0.00 | 3.34 | 3.06 | 95 | 1013.4 |
| 20260502040051 | 56 | 48 | 0.0 | 0.0 | 0.00 | 3.34 | 3.06 | 96 | 1013.4 |
| 20260502034550 | 56 | 5 | 0.0 | 0.0 | 0.01 | 3.34 | 3.06 | 96 | 1013.4 |
| 20260502033053 | 56 | 15 | 0.0 | 0.0 | 0.02 | 3.34 | 3.06 | 96 | 1012.9 |
| 20260502031547 | 57 | 360 | 0.0 | 0.0 | 0.03 | 3.34 | 3.06 | 96 | 1012.9 |
| 20260502030043 | 57 | 360 | 0.0 | 0.0 | 0.04 | 3.34 | 3.06 | 96 | 1012.4 |
| 20260502024542 | 57 | 50 | 0.0 | 0.0 | 0.06 | 3.33 | 3.05 | 96 | 1012.0 |
| 20260502023040 | 57 | 18 | 0.0 | 0.0 | 0.05 | 3.32 | 3.04 | 96 | 1012.0 |
| 20260502021537 | 58 | 27 | 0.0 | 0.0 | 0.06 | 3.31 | 3.03 | 96 | 1011.6 |
| 20260502020035 | 58 | 323 | 0.0 | 0.0 | 0.09 | 3.30 | 3.02 | 96 | 1011.4 |
| 20260502014535 | 58 | 34 | 0.0 | 0.0 | 0.09 | 3.27 | 2.99 | 96 | 1011.2 |
| 20260502013030 | 59 | 304 | 0.0 | 0.0 | 0.12 | 3.27 | 2.99 | 96 | 1011.2 |
| 20260502011550 | 59 | 342 | 0.0 | 0.0 | 0.13 | 3.24 | 2.96 | 96 | 1010.5 |
| 20260502010030 | 59 | 67 | 0.0 | 0.0 | 0.11 | 3.20 | 2.92 | 96 | 1010.8 |
| 20260502004550 | 59 | 321 | 0.0 | 0.0 | 0.14 | 3.18 | 2.90 | 96 | 1010.7 |
| 20260502003028 | 59 | 351 | 0.0 | 0.0 | 0.11 | 3.14 | 2.86 | 96 | 1009.2 |
| 20260502001526 | 60 | 21 | 0.0 | 0.0 | 0.09 | 3.11 | 2.83 | 96 | 1009.9 |
| 20260502000025 | 60 | 27 | 0.0 | 0.0 | 0.20 | 3.09 | 2.81 | 96 | 1009.7 |
| 20260501234525 | 60 | 61 | 0.0 | 0.0 | 0.16 | 3.04 | 2.76 | 96 | 1010.5 |
| 20260501233024 | 60 | 5 | 0.0 | 0.0 | 0.15 | 3.03 | 2.75 | 96 | 1008.8 |
| 20260501231534 | 60 | 44 | 0.0 | 0.0 | 0.14 | 3.02 | 2.74 | 95 | 1008.3 |
| 20260501230021 | 61 | 38 | 0.0 | 0.0 | 0.01 | 2.89 | 2.61 | 95 | 1009.7 |
| 20260501224521 | 61 | 44 | 0.0 | 0.0 | 0.01 | 2.88 | 2.60 | 95 | 1008.3 |
| 20260501223018 | 61 | 36 | 0.0 | 0.0 | 0.02 | 2.88 | 2.60 | 96 | 1007.8 |
| 20260501221517 | 62 | 40 | 0.0 | 0.0 | 0.06 | 2.88 | 2.60 | 97 | 1007.7 |
| 20260501220020 | 62 | 36 | 0.0 | 0.0 | 0.06 | 2.88 | 2.60 | 97 | 1008.4 |
| 20260501214517 | 62 | 28 | 0.0 | 0.0 | 0.09 | 2.87 | 2.59 | 97 | 1008.3 |
| 20260501213024 | 62 | 18 | 0.0 | 0.0 | 0.21 | 2.86 | 2.58 | 97 | 1009.2 |
| 20260501211514 | 62 | 355 | 0.0 | 0.0 | 0.27 | 2.82 | 2.54 | 97 | 1008.5 |
| 20260501210013 | 62 | 5 | 0.0 | 0.0 | 0.31 | 2.82 | 2.54 | 97 | 1007.2 |
| 20260501204512 | 62 | 348 | 0.0 | 0.0 | 0.31 | 2.77 | 2.49 | 97 | 1007.8 |
| 20260501203011 | 62 | 22 | 0.0 | 0.0 | 0.23 | 2.65 | 2.37 | 97 | 1007.0 |
| 20260501201511 | 63 | 100 | 0.0 | 0.0 | 0.14 | 2.54 | 2.27 | 97 | 1007.6 |
| 20260501200010 | 63 | 5 | 0.0 | 0.0 | 0.16 | 2.50 | 2.23 | 97 | 1007.4 |
| 20260501194516 | 63 | 80 | 0.0 | 0.0 | 0.12 | 2.46 | 2.18 | 97 | 1006.9 |
| 20260501193021 | 63 | 51 | 0.0 | 0.0 | 0.21 | 2.42 | 2.14 | 97 | 1006.7 |
| 20260501191509 | 63 | 70 | 0.0 | 0.0 | 0.28 | 2.41 | 2.13 | 97 | 1007.0 |
| 20260501190028 | 63 | 74 | 0.0 | 0.0 | 0.34 | 2.35 | 2.06 | 97 | 1007.7 |
| 20260501184508 | 63 | 76 | 0.0 | 0.0 | 0.52 | 2.34 | 2.06 | 97 | 1007.5 |
| 20260501183015 | 62 | 62 | 0.0 | 0.0 | 0.48 | 2.21 | 1.93 | 97 | 1006.9 |
| 20260501181506 | 62 | 43 | 0.0 | 0.0 | 0.41 | 2.13 | 1.85 | 96 | 1006.2 |
| 20260501180004 | 63 | 25 | 0.0 | 0.0 | 0.28 | 2.00 | 1.72 | 96 | 1006.0 |
| 20260501174508 | 63 | 76 | 0.0 | 0.0 | 0.11 | 1.82 | 1.54 | 96 | 1008.1 |
| 20260501173001 | 63 | 63 | 0.0 | 0.0 | 0.04 | 1.73 | 1.45 | 96 | 1007.7 |
| 20260501171501 | 63 | 25 | 0.0 | 0.0 | 0.07 | 1.72 | 1.44 | 96 | 1007.7 |
| 20260501170001 | 63 | 355 | 0.0 | 0.0 | 0.13 | 1.72 | 1.44 | 96 | 1008.3 |
| 20260501164604 | 63 | 30 | 0.0 | 0.0 | 0.14 | 1.71 | 1.43 | 96 | 1008.6 |